Weather History for Buffalo, NY

Change the Weather History Date:

Sunday, January 13, 2013

  Actual Average Record
Temperature  
Mean Temperature 56 °F 25 °F  
Max Temperature 65 °F 31 °F 68 °F (2005)
Min Temperature 46 °F 19 °F -10 °F (1914)
Degree Days  
Heating Degree Days 9 40  
Month to date heating degree days 393 515  
Since 1 July heating degree days 2554 2930  
Cooling Degree Days 0 0  
Month to date cooling degree days 0 0  
Year to date cooling degree days 0 0  
Growing Degree Days 5 (Base 50)    
Moisture  
Dew Point 48 °F    
Average Humidity 93    
Maximum Humidity 100    
Minimum Humidity 86    
Precipitation  
Precipitation 0.38 in 0.10 in 1.30 in (1895)
Month to date precipitation 0.56 1.45  
Year to date precipitation 0.56 1.45  
Snow  
Snow 0.00 in 0.80 in 6.40 in (2012)
Month to date snowfall 1.0 11.5  
Since 1 July snowfall 23.0 47.7  
Snow Depth 0.00 in    
Sea Level Pressure  
Sea Level Pressure 29.83 in    
Wind  
Wind Speed 12 mph (SW)    
Max Wind Speed 28 mph    
Max Gust Speed 38 mph    
Visibility 8 miles    
Events Rain    
T = Trace of Precipitation, MM = Missing Value Source: NWS Daily Summary

Daily Weather History Graph

Daily Weather History Graph

Search for Another Location

Airport:

Trip Planner

Search our weather history database for the weather conditions in past years. The results will help you decide how hot, cold, wet, or windy it might be!

Date:

Astronomy

Jan. 13, 2013 Rise Set
Actual Time 7:44 AM EST 5:03 PM EST
Civil Twilight 7:12 AM EST 5:35 PM EST
Nautical Twilight 6:37 AM EST 6:10 PM EST
Astronomical Twilight 6:03 AM EST 6:44 PM EST
Moon 8:37 AM EST (1/13) 7:45 PM EST (1/13)
Length of Visible Light 10h 22m
Length of Day
9h 19m
Waxing Crescent, 5% of the Moon is Illuminated
Jan 13
Waxing Crescent
Jan 18
First Quarter
Jan 26
Full
Feb 3
Last Quarter
Feb 10
New

Hourly Weather History & Observations

Time (EST) Temp. Windchill Dew Point Humidity Pressure Visibility Wind Dir Wind Speed Gust Speed Precip Events Conditions
12:54 AM 52.0 °F - 48.9 °F 89% 29.92 in 10.0 mi SE 4.6 mph - N/A   Overcast
1:54 AM 50.0 °F - 48.0 °F 93% 29.93 in 10.0 mi ESE 5.8 mph - 0.00 in Rain Light Rain
2:54 AM 52.0 °F - 48.9 °F 89% 29.88 in 10.0 mi East 6.9 mph - 0.00 in Rain Light Rain
3:54 AM 52.0 °F - 50.0 °F 93% 29.85 in 3.0 mi NNW 6.9 mph - 0.07 in Rain Heavy Rain
4:01 AM 51.8 °F - 50.0 °F 94% 29.84 in 2.0 mi NNW 6.9 mph - 0.06 in Rain Heavy Rain
4:24 AM 51.8 °F - 51.8 °F 100% 29.81 in 4.0 mi East 9.2 mph - 0.17 in Rain Light Rain
4:54 AM 53.1 °F - 51.1 °F 93% 29.78 in 10.0 mi ESE 11.5 mph - 0.24 in Rain Light Rain
5:54 AM 55.0 °F - 50.0 °F 83% 29.75 in 10.0 mi SE 11.5 mph - 0.00 in   Overcast
6:54 AM 55.4 °F - 51.8 °F 88% 29.76 in 10.0 mi South 11.5 mph - N/A   Overcast
7:54 AM 62.1 °F - 53.1 °F 72% 29.76 in 10.0 mi SSW 15.0 mph 24.2 mph N/A Rain Light Rain
8:54 AM 64.0 °F - 54.0 °F 70% 29.76 in 10.0 mi SSW 19.6 mph 27.6 mph 0.00 in   Overcast
9:54 AM 64.0 °F - 55.0 °F 73% 29.76 in 10.0 mi SSW 21.9 mph 31.1 mph 0.00 in Rain Light Rain
10:54 AM 64.9 °F - 55.0 °F 70% 29.75 in 10.0 mi SSW 25.3 mph 34.5 mph 0.00 in Rain Light Rain
11:54 AM 64.9 °F - 55.0 °F 70% 29.77 in 10.0 mi WSW 21.9 mph 32.2 mph 0.00 in   Mostly Cloudy
12:54 PM 55.9 °F - 52.0 °F 87% 29.80 in 10.0 mi SW 23.0 mph 32.2 mph N/A   Mostly Cloudy
1:08 PM 51.8 °F - 48.2 °F 88% 29.80 in 10.0 mi SW 20.7 mph 32.2 mph N/A   Mostly Cloudy
1:43 PM 51.8 °F - 48.2 °F 88% 29.81 in 10.0 mi SW 17.3 mph 24.2 mph N/A   Mostly Cloudy
1:54 PM 51.1 °F - 48.0 °F 89% 29.81 in 10.0 mi SW 16.1 mph 20.7 mph N/A   Mostly Cloudy
2:40 PM 48.2 °F - 46.4 °F 93% 29.83 in 10.0 mi SW 13.8 mph - N/A   Mostly Cloudy
2:54 PM 48.0 °F - 46.0 °F 93% 29.85 in 10.0 mi SW 11.5 mph - N/A   Mostly Cloudy
3:19 PM 48.2 °F - 46.4 °F 93% 29.84 in 10.0 mi SW 10.4 mph - N/A   Mostly Cloudy
3:39 PM 48.2 °F - 46.4 °F 93% 29.86 in 10.0 mi WSW 10.4 mph - N/A   Mostly Cloudy
3:54 PM 48.9 °F - 46.0 °F 90% 29.87 in 10.0 mi SW 8.1 mph - N/A   Mostly Cloudy
4:29 PM 46.4 °F 40.7 °F 44.6 °F 93% 29.87 in 10.0 mi SW 12.7 mph - N/A   Overcast
4:43 PM 46.4 °F 41.9 °F 44.6 °F 93% 29.87 in 10.0 mi SW 9.2 mph - N/A   Overcast
4:54 PM 48.0 °F - 45.0 °F 89% 29.88 in 10.0 mi SW 13.8 mph - N/A   Overcast
5:38 PM 48.2 °F - 46.4 °F 93% 29.87 in 10.0 mi SW 9.2 mph - N/A   Overcast
5:47 PM 48.2 °F - 46.4 °F 93% 29.87 in 10.0 mi SW 9.2 mph - N/A   Overcast
5:54 PM 50.0 °F - 46.9 °F 89% 29.87 in 10.0 mi SW 9.2 mph - N/A   Overcast
6:54 PM 50.0 °F - 46.9 °F 89% 29.88 in 10.0 mi SW 9.2 mph - N/A   Overcast
7:54 PM 48.0 °F - 46.0 °F 93% 29.86 in 7.0 mi SW 9.2 mph - 0.00 in   Overcast
8:22 PM 46.4 °F 41.9 °F 46.4 °F 100% 29.85 in 5.0 mi WSW 9.2 mph - 0.00 in   Overcast
8:54 PM 46.9 °F - 46.0 °F 97% 29.85 in 3.0 mi SW 6.9 mph - 0.01 in Rain Light Rain
9:19 PM 46.4 °F 43.5 °F 46.4 °F 100% 29.83 in 2.0 mi WSW 5.8 mph - 0.00 in Rain Light Rain
9:30 PM 46.4 °F 42.9 °F 46.4 °F 100% 29.83 in 2.0 mi WSW 6.9 mph - 0.02 in Rain Rain
9:43 PM 46.4 °F 43.5 °F 46.4 °F 100% 29.82 in 3.0 mi SW 5.8 mph - 0.02 in Rain Light Rain
9:54 PM 46.9 °F - 46.0 °F 97% 29.83 in 3.0 mi SW 11.5 mph - 0.03 in Rain Light Rain
10:14 PM 46.4 °F 43.5 °F 44.6 °F 93% 29.82 in 2.0 mi SW 5.8 mph - 0.01 in Rain Light Rain
10:54 PM 46.0 °F 42.5 °F 45.0 °F 96% 29.80 in 2.0 mi South 6.9 mph - 0.03 in   Overcast
11:08 PM 46.4 °F 42.9 °F 44.6 °F 93% 29.77 in 1.5 mi SSE 6.9 mph - N/A   Overcast
11:25 PM 46.4 °F 43.5 °F 44.6 °F 93% 29.77 in 2.5 mi SSW 5.8 mph - 0.00 in   Overcast
11:54 PM 46.0 °F 41.0 °F 45.0 °F 96% 29.78 in 3.0 mi West 10.4 mph - 0.00 in   Overcast